RH
5 5 4 4 4 4 4 4 4 5 5 5 5 5 5 5 5 6 6 6 5 5 5 5 5 4 4 4 4 4 4 4 4 4 4 4 4 4 4 4 4 5 6 10 18 29 42 52 60 66 72 76 78 78 78 78 78 78 78 76 75 74 72 70 69 69 70 72 75 77 78 78 79 79 79 80 81 81 82 82 82 82 82 82 82 82
5 4 4 4 4 4 4 4 5 5 5 6 6 6 6 6 6 6 6 6 5 5 5 5 5 5 5 4 4 4 4 4 4 4 4 4 4 4 4 4 4 4 5 8 15 25 38 50 59 65 71 76 78 78 78 78 78 78 78 77 76 75 74 72 70 69 69 69 70 72 75 76 76 76 77 77 78 80 80 80 81 81 82 82 82 82
4 4 4 4 4 4 4 5 5 5 6 6 6 6 6 6 6 6 6 5 5 5 5 5 5 5 5 5 5 4 4 4 4 4 4 4 4 4 4 4 4 4 4 6 12 21 34 48 58 65 70 74 77 78 78 78 78 78 78 77 76 76 74 72 71 70 70 69 70 70 71 73 74 74 74 74 75 76 78 78 78 79 79 81 82 82
4 4 4 5 5 5 5 5 5 6 6 6 6 6 6 6 6 6 6 5 5 5 5 5 5 5 5 5 5 5 5 4 4 4 4 4 4 4 4 4 4 4 4 5 9 16 29 44 56 64 69 74 76 78 78 78 78 77 77 77 76 76 74 73 72 71 70 70 70 70 70 71 71 72 72 72 73 73 74 76 76 76 76 78 80 82
5 5 5 5 5 5 5 6 6 6 6 6 6 6 6 6 6 6 6 5 5 5 5 5 6 6 6 5 5 5 5 5 5 5 5 5 5 5 5 5 5 4 4 5 7 13 24 39 52 63 69 73 76 77 78 78 77 77 77 76 76 75 74 73 72 72 72 71 71 70 70 70 70 70 70 71 71 71 71 72 73 74 74 74 76 78
5 5 6 6 6 6 6 6 6 6 6 6 6 6 6 6 6 6 6 6 6 6 6 6 6 6 6 6 6 5 5 5 5 5 6 6 6 6 6 6 5 5 5 5 6 10 18 34 48 60 68 72 75 76 77 77 77 76 76 76 76 74 73 72 72 72 72 72 71 71 71 71 70 70 70 70 70 70 69 69 69 70 71 71 72 74
6 6 6 6 6 6 6 6 6 6 6 6 6 6 6 6 6 6 6 6 6 6 6 6 6 6 6 6 6 6 5 6 6 6 6 6 6 6 6 6 6 6 5 5 5 8 14 28 43 57 66 70 74 76 77 77 76 76 76 76 75 74 72 72 71 71 72 72 72 72 72 72 72 72 71 70 70 69 68 66 66 66 66 66 68 69
6 6 6 6 6 6 6 6 6 6 6 6 6 6 6 6 6 6 6 6 6 6 6 6 6 6 6 6 6 6 6 6 6 6 7 7 7 8 7 7 6 6 6 5 5 6 10 22 37 52 63 68 72 74 76 76 76 76 76 76 74 74 72 71 71 70 71 71 72 72 72 72 72 71 70 69 68 66 65 64 63 62 61 61 62 63
7 7 7 7 6 6 6 6 6 6 6 6 7 7 7 7 7 7 7 7 7 6 6 6 6 6 6 6 6 6 6 6 7 7 8 8 8 8 8 8 7 7 6 6 5 6 8 17 31 45 58 65 68 70 72 74 74 74 74 74 74 73 72 71 70 70 70 70 71 71 70 69 67 65 63 62 61 60 60 59 58 58 57 56 56 57
7 7 7 7 7 6 6 6 6 6 6 7 7 8 8 8 8 8 7 7 7 7 6 6 6 6 6 6 6 6 7 7 8 8 8 8 9 9 8 8 8 8 7 6 6 5 6 13 24 38 52 60 65 67 68 70 71 72 72 72 72 72 71 70 70 70 70 70 69 67 64 60 57 54 52 51 51 51 52 52 52 52 52 50 50 50
7 7 7 7 6 6 6 6 6 6 7 8 8 8 9 9 9 8 8 7 7 7 6 6 6 6 6 6 7 7 8 8 8 8 9 9 10 10 10 9 8 8 8 7 6 5 5 10 18 31 46 56 62 64 64 65 66 68 70 70 71 70 70 70 69 68 68 66 63 58 53 48 44 42 41 41 42 42 43 44 45 46 46 45 44 44
8 7 7 7 6 6 6 6 7 8 8 9 9 10 10 10 9 9 8 8 7 7 7 6 6 6 6 7 7 8 8 9 9 9 10 10 10 10 10 10 9 8 8 7 6 6 5 7 14 24 38 50 58 61 62 61 61 62 65 67 68 69 68 67 66 64 62 58 53 47 40 37 35 34 35 35 36 36 36 37 37 38 39 39 38 38
8 7 7 7 6 6 7 8 8 10 10 11 11 11 10 10 10 9 8 8 8 7 7 6 6 6 6 7 8 9 10 10 10 10 10 10 10 10 10 10 10 9 8 7 6 6 5 6 10 19 31 44 53 58 60 58 56 56 58 60 62 62 62 60 57 54 51 46 41 36 32 31 32 32 34 34 34 34 34 32 32 32 32 32 32 32
8 7 7 7 7 7 8 10 11 12 12 13 13 13 12 11 10 10 9 8 8 7 7 6 6 6 6 8 9 10 11 11 11 11 10 10 10 10 10 10 10 9 8 7 6 6 5 5 8 14 24 37 48 55 58 56 53 50 50 51 52 52 51 48 46 42 39 35 32 30 29 30 31 33 34 35 35 34 33 32 30 29 28 27 27 26
7 7 7 7 8 8 10 12 14 14 15 15 15 14 13 11 10 10 9 8 8 7 7 6 6 6 7 8 9 10 11 11 11 11 10 11 10 10 10 10 9 8 8 7 6 6 5 5 6 11 18 30 42 51 56 55 52 48 44 44 43 42 40 38 35 33 30 28 28 28 29 30 32 34 34 35 35 34 33 32 30 28 26 24 23 23
8 7 8 8 9 10 13 15 16 16 17 16 16 15 13 12 10 10 8 8 7 7 6 6 6 6 6 8 9 10 11 10 10 10 10 10 10 10 10 9 9 8 8 8 7 7 6 5 6 8 14 24 35 45 53 54 52 48 42 39 36 34 32 31 29 28 26 26 27 28 30 32 32 33 34 34 33 32 32 31 30 28 26 24 21 20
8 8 9 10 12 13 15 17 18 18 18 17 16 14 13 11 10 9 8 8 7 6 6 6 6 6 6 8 8 10 10 10 10 10 10 9 9 8 9 9 8 8 8 8 8 8 7 6 6 7 10 18 27 38 48 52 52 49 44 38 34 30 28 27 26 26 26 27 28 30 32 32 32 32 32 32 31 30 30 29 28 27 26 23 20 18
10 10 12 13 15 16 18 19 19 19 19 17 15 13 11 10 9 8 8 7 7 6 6 6 6 7 7 7 8 9 10 10 10 9 9 8 8 8 8 8 8 8 8 8 8 8 8 7 6 6 7 12 20 30 40 47 51 50 47 40 35 30 27 26 25 26 26 28 29 30 32 32 32 32 31 30 30 29 28 28 27 26 24 22 19 16
11 13 15 17 18 19 20 20 20 20 19 16 14 12 10 8 8 7 7 7 7 7 7 7 7 7 7 8 8 9 9 10 10 9 10 9 9 8 8 8 8 8 8 8 8 8 7 6 6 6 6 8 14 21 30 39 46 49 50 45 40 34 29 27 26 26 26 28 29 30 30 30 30 30 30 29 28 28 28 27 26 24 23 20 17 15
14 16 18 20 21 22 21 21 21 20 18 16 13 11 9 8 7 7 6 7 7 7 7 7 7 7 7 8 8 8 9 9 9 9 10 9 9 8 7 6 7 8 8 8 7 7 6 6 5 5 5 6 9 14 20 28 36 43 47 46 44 40 35 32 29 28 27 28 28 28 28 28 28 28 28 28 28 28 27 26 25 23 21 18 16 14
17 18 20 22 23 24 23 22 20 18 16 14 12 10 8 7 7 6 7 7 8 8 8 8 7 7 7 7 8 8 8 8 8 9 8 8 10 12 14 13 13 14 14 11 9 7 6 6 5 5 4 5 6 8 12 18 25 32 38 42 43 42 40 38 35 32 31 30 29 28 28 28 27 27 27 27 27 26 26 24 22 20 18 16 14 12
20 21 22 24 25 24 24 22 19 17 15 13 11 9 8 7 7 7 7 8 8 8 8 8 7 7 7 7 7 8 8 8 8 10 10 12 19 28 34 32 30 28 28 24 20 15 10 7 5 4 4 4 5 6 8 10 15 19 24 30 34 36 38 38 37 35 34 32 31 30 29 28 28 27 27 26 24 23 22 20 18 16 15 13 12 11
22 23 24 25 26 25 23 21 18 16 13 11 10 8 7 7 7 7 8 8 8 8 8 7 7 7 7 7 7 7 8 9 11 14 20 23 32 44 52 52 46 41 40 38 34 27 18 11 7 5 4 4 4 5 6 7 8 10 13 16 20 23 26 27 28 29 29 29 28 27 26 26 24 23 22 20 19 17 15 14 13 12 11 10 10 10
24 25 26 26 25 24 22 19 16 14 11 10 8 7 7 7 7 8 8 8 8 8 7 7 7 7 8 8 7 8 11 16 21 26 34 37 42 50 61 61 56 49 45 45 42 36 25 16 11 7 4 4 4 4 4 5 6 6 7 8 10 11 13 14 15 16 17 17 17 17 16 16 15 14 13 12 11 10 10 9 8 8 8 9 10 10
26 26 26 25 24 22 19 16 14 12 10 8 8 7 7 7 8 8 8 8 8 8 7 8 8 8 8 9 10 12 19 30 37 42 46 48 50 54 62 63 58 52 48 48 45 39 29 22 16 12 7 4 3 3 3 4 4 4 5 5 6 6 6 7 7 7 7 8 8 7 7 7 7 6 6 6 6 6 6 6 6 7 8 8 9 10
26 26 25 23 21 19 16 14 12 10 9 8 8 8 8 8 9 10 10 10 10 8 8 8 8 9 10 12 14 20 28 40 49 53 52 51 52 56 63 63 59 54 51 51 48 43 36 30 24 18 12 8 4 3 2 2 2 3 3 3 4 4 4 4 4 4 4 4 4 4 4 4 4 4 4 4 4 4 5 6 6 6 7 8 9 10
26 24 23 20 18 16 13 11 10 9 9 9 10 11 12 13 14 15 16 16 14 12 10 9 10 11 13 15 19 26 35 44 52 57 54 50 52 56 63 63 60 56 54 55 54 50 45 40 34 28 20 14 9 5 3 2 2 2 2 2 2 2 2 3 3 3 3 3 3 3 3 3 3 4 4 4 4 5 5 6 6 7 8 8 9 10
23 21 19 16 14 12 10 9 9 10 11 13 15 18 21 24 26 27 29 28 24 20 16 15 16 17 18 20 24 32 40 46 54 59 56 51 52 56 62 63 61 58 55 56 56 54 50 45 40 34 26 20 14 8 5 3 2 2 1 2 2 2 2 2 3 3 3 3 3 3 3 4 4 4 4 5 5 6 6 6 7 7 8 8 9 8
18 16 14 12 10 9 8 9 11 14 17 22 26 32 37 41 43 44 46 45 42 37 32 30 29 30 30 29 32 38 46 52 58 60 56 53 54 57 63 62 60 58 55 55 55 54 52 48 42 35 28 22 16 11 7 4 3 2 1 2 2 2 2 2 3 3 3 4 4 4 4 4 5 5 5 6 6 6 6 6 7 7 8 8 8 7
13 11 10 8 8 9 11 14 18 23 30 36 43 48 52 56 57 58 59 59 57 54 51 50 49 49 49 45 43 45 54 60 63 63 58 56 57 60 65 63 61 60 58 58 58 58 58 54 47 39 30 22 16 11 8 5 3 2 1 1 2 2 2 3 3 4 4 4 5 5 6 6 6 6 6 6 6 7 7 7 7 7 7 7 6 6
8 8 8 9 11 14 18 24 31 38 46 52 57 60 61 62 62 63 65 64 64 63 62 63 63 63 63 62 56 54 60 66 68 66 60 58 60 63 66 64 64 64 64 62 64 67 67 64 57 46 34 25 18 12 8 5 3 2 1 1 2 2 2 3 4 4 5 6 6 6 7 7 7 7 8 7 7 7 7 6 6 6 6 6 7 8
7 8 10 14 20 26 33 40 48 54 58 61 63 64 64 64 64 64 64 64 65 65 65 66 67 68 68 68 65 63 64 69 70 67 63 61 62 65 67 65 65 67 70 68 69 71 72 70 65 55 41 30 21 14 8 5 3 2 1 1 1 2 2 3 4 5 6 6 7 8 8 8 8 8 8 7 7 6 6 5 5 6 7 10 14 17
10 14 19 26 34 42 50 55 59 62 64 65 65 65 65 65 65 65 65 65 65 66 66 66 66 66 67 68 68 68 68 72 71 68 65 63 63 65 66 65 66 68 73 73 72 72 72 72 68 60 48 35 25 16 10 6 4 2 1 1 1 2 2 3 4 5 6 6 7 7 7 7 6 6 6 6 5 5 5 6 8 12 16 22 27 31
20 26 32 40 48 54 60 62 62 63 64 65 65 65 64 65 65 66 66 66 66 66 66 66 66 66 66 64 65 67 71 73 71 67 64 62 62 62 64 64 65 67 72 73 74 73 73 72 70 64 52 39 28 18 12 7 4 2 2 2 2 2 2 3 4 5 5 5 5 5 4 4 4 4 4 5 5 7 9 13 19 26 34 40 43 45
32 39 46 51 56 59 61 61 62 62 63 65 66 66 66 66 66 66 66 67 68 68 68 68 68 67 67 64 61 61 67 72 70 67 63 61 60 60 60 61 62 65 69 72 73 74 73 73 71 66 58 44 31 20 13 8 5 2 2 2 2 2 3 4 4 4 4 4 3 4 4 4 5 6 8 10 12 16 21 28 36 44 50 54 55 56
44 50 55 57 59 60 61 62 62 63 65 67 68 69 69 68 68 68 69 69 70 71 71 71 71 70 70 66 62 58 60 66 68 68 65 64 63 61 59 59 60 62 64 68 72 73 73 73 71 67 60 49 35 22 14 10 6 3 2 3 4 4 5 5 5 4 4 5 5 6 7 8 10 13 16 20 26 32 38 46 53 58 61 61 60 60
55 58 61 62 63 64 65 65 66 67 68 70 71 72 71 71 71 71 71 72 73 73 74 74 73 73 72 70 67 64 62 66 68 70 69 69 69 69 66 63 60 58 58 62 67 70 72 72 71 68 62 52 38 24 16 13 10 8 8 6 6 7 7 8 8 8 8 10 12 13 15 18 21 25 29 34 40 46 53 60 64 66 66 64 62 60
62 64 66 66 66 66 68 68 69 70 72 72 73 73 72 72 72 71 72 73 74 74 74 74 74 74 74 73 72 71 70 71 72 72 72 71 72 73 73 70 66 60 56 56 58 63 68 70 71 69 64 52 38 25 17 16 15 14 13 10 10 10 10 12 12 14 15 18 20 22 24 28 32 36 41 45 50 57 63 67 69 68 66 63 61 60
66 68 68 69 69 70 71 72 72 73 74 74 73 73 72 71 71 72 72 74 74 75 75 75 75 75 75 75 74 74 74 74 74 74 73 73 73 73 74 74 71 67 60 54 53 54 60 65 69 70 68 55 40 26 18 18 18 18 16 14 14 14 15 16 18 20 23 26 28 30 32 35 39 44 49 53 58 62 67 69 70 69 66 63 60 59
70 70 72 72 73 73 74 74 74 74 74 74 74 73 72 71 72 73 74 74 74 74 75 76 76 76 76 76 76 76 74 74 74 74 74 74 74 74 74 74 74 71 66 58 53 51 52 58 64 66 62 54 40 27 20 20 20 20 18 19 19 20 20 22 24 27 29 32 34 35 37 39 42 46 50 56 60 64 68 69 69 68 66 63 61 59
73 74 74 74 74 74 74 73 72 72 72 73 73 73 72 72 73 74 74 74 74 74 74 76 76 76 76 76 76 74 72 72 72 73 74 76 76 75 74 74 74 73 68 60 55 53 52 54 58 59 54 46 36 26 21 21 22 22 21 21 22 24 25 27 30 32 34 36 36 37 38 40 42 46 50 56 60 64 66 68 68 68 66 64 62 60
74 74 74 74 74 72 70 69 68 68 69 70 72 73 73 74 74 74 74 72 72 72 74 75 76 76 76 76 75 72 68 68 69 71 74 74 74 74 74 74 74 70 65 58 54 52 51 50 51 52 51 42 33 26 22 22 23 24 24 23 24 27 30 32 34 36 38 38 38 37 37 39 42 45 48 52 56 59 62 64 66 66 66 64 61 58
75 75 75 74 74 72 70 68 67 66 67 68 71 73 74 75 74 74 72 71 70 70 72 74 76 76 77 76 72 68 65 64 66 68 70 71 71 71 71 69 66 63 58 54 50 49 48 46 46 45 43 36 30 26 22 23 24 26 26 26 28 32 36 38 38 38 39 39 38 36 36 38 39 42 44 47 50 53 56 60 62 64 64 62 59 56
75 76 76 76 74 73 71 69 68 67 68 70 72 74 76 76 76 74 71 70 70 70 70 72 74 75 74 69 64 61 60 60 61 62 63 65 67 68 66 63 58 54 51 50 49 47 46 45 44 42 40 35 30 26 23 24 26 27 28 29 31 34 37 39 40 41 41 40 37 36 35 36 37 39 42 44 47 50 54 58 60 61 60 58 55 52
76 76 76 76 76 74 73 71 70 70 71 73 74 76 77 77 76 73 70 71 72 72 71 70 70 69 66 61 58 58 58 58 59 60 61 63 64 64 63 61 58 56 54 53 52 51 50 48 45 42 39 35 31 27 24 24 26 28 30 32 34 36 38 39 40 40 42 40 38 37 35 36 39 42 45 48 51 54 56 58 59 58 56 54 51 49
76 76 76 76 76 75 74 74 74 74 75 76 76 76 77 77 76 73 71 72 72 72 70 69 67 64 61 60 60 62 64 65 65 64 65 66 67 68 67 66 65 64 62 62 62 61 59 55 50 45 41 36 32 28 25 25 26 28 32 34 37 40 41 42 41 40 40 40 40 39 39 41 44 48 52 55 57 59 60 60 58 56 52 50 48 46
77 77 77 77 76 76 76 76 76 76 77 76 76 76 77 77 76 74 72 72 72 70 68 68 66 66 65 67 68 70 72 72 71 71 71 72 73 74 74 74 74 74 73 72 71 69 66 60 54 49 44 38 33 29 26 26 26 28 31 35 38 42 44 44 42 41 40 40 41 42 44 48 52 56 58 60 62 63 63 61 58 54 50 48 46 46
77 77 77 77 77 77 77 77 78 78 77 77 77 77 78 77 76 74 74 72 71 70 69 70 70 71 72 74 75 76 75 74 74 74 75 76 77 77 78 78 78 77 77 77 76 72 67 60 54 49 45 40 35 30 27 26 26 27 30 34 38 41 44 44 42 40 40 41 43 46 50 54 58 61 62 64 64 64 63 61 58 54 52 52 52 54
77 77 77 77 77 78 78 78 78 78 78 78 78 78 78 77 76 76 74 74 73 72 73 74 75 76 77 77 78 78 77 77 77 77 77 77 77 77 78 78 78 78 78 78 78 76 74 66 58 51 45 40 36 32 29 27 26 27 28 32 35 38 41 42 40 40 40 42 45 49 53 57 60 62 63 64 63 62 62 61 60 59 60 62 65 68
77 77 77 77 77 78 78 78 78 78 78 78 78 78 78 78 77 77 76 76 76 76 77 77 78 78 78 78 78 78 78 78 78 78 78 78 78 78 78 77 77 78 78 78 78 78 78 76 71 63 53 44 38 34 31 28 26 26 27 29 32 34 37 38 38 38 39 42 46 51 55 58 60 61 62 62 61 61 62 65 68 70 72 74 76 78
77 77 77 77 77 78 78 78 78 78 78 78 78 78 78 78 78 78 78 78 78 78 78 78 78 78 78 79 79 79 79 79 79 79 78 78 78 78 77 77 77 78 78 77 77 77 77 78 77 74 69 58 47 38 33 30 26 25 25 26 28 31 33 34 35 36 38 42 46 51 55 58 60 61 61 60 62 64 68 73 76 77 78 78 78 78
Wind_Speed
81 80 78 77 75 73 72 70 68 67 67 66 66 65 64 64 64 65 66 66 67 68 69 70 70 70 71 71 71 70 70 70 70 71 71 71 72 72 72 72 73 75 77 77 75 73 71 69 68 67 67 68 69 70 71 72 73 74 75 76 77 78 80 83 86 89 92 93 93 93 92 92 92 93 95 96 95 94 91 89 86 82 78 74 71 69
80 78 76 74 73 71 70 68 66 65 65 65 65 65 65 65 65 66 66 67 67 68 68 69 69 70 70 70 70 70 70 70 70 70 70 70 71 72 72 72 72 73 75 76 76 74 72 70 68 67 67 68 68 69 70 71 72 73 73 74 74 75 76 78 80 82 85 88 90 91 91 91 90 91 92 93 93 93 91 90 88 86 83 80 76 72
77 76 74 73 71 69 68 67 65 64 64 64 64 65 65 66 66 66 67 67 67 67 67 68 68 69 69 69 69 69 69 69 69 69 68 68 69 70 71 71 71 72 74 75 76 75 73 71 69 68 67 68 68 69 69 70 71 72 72 72 73 73 73 74 75 77 79 81 83 86 87 88 88 89 89 90 91 91 91 89 88 87 86 84 81 78
75 73 72 71 69 68 67 66 64 64 63 63 63 64 64 65 66 66 66 66 66 66 67 67 67 67 68 68 68 68 68 68 67 67 66 66 66 67 69 69 70 71 72 74 75 75 73 71 70 68 68 68 68 68 69 69 70 71 71 72 72 72 72 72 72 73 74 75 77 79 81 83 84 85 86 87 88 89 89 88 87 86 85 86 85 84
72 71 70 69 68 67 66 65 64 63 63 63 63 63 63 64 65 65 65 65 65 65 65 65 66 66 67 67 67 67 66 66 65 65 64 64 64 64 65 67 68 69 70 72 74 75 74 72 71 69 68 68 68 68 68 68 69 69 70 71 71 71 71 70 70 71 71 72 73 74 75 77 79 81 82 83 85 86 87 87 86 85 84 84 85 86
71 69 69 68 67 67 66 65 64 63 63 63 63 63 63 63 63 63 63 63 63 63 64 64 64 65 65 65 65 65 64 64 64 63 62 62 61 61 62 64 65 67 68 70 72 74 74 73 71 70 69 68 68 68 68 68 68 68 69 70 70 70 70 70 69 69 69 69 69 70 71 72 73 74 76 78 79 81 83 84 85 84 82 82 84 85
70 68 67 67 66 66 65 64 63 63 63 63 63 63 62 62 62 62 62 62 62 62 62 62 63 63 63 63 63 62 62 62 61 61 60 59 59 59 59 60 62 64 66 68 70 73 74 73 72 71 70 69 69 68 68 67 67 67 68 69 69 69 69 69 68 68 67 67 67 67 67 67 68 69 70 71 73 75 77 80 81 82 81 80 81 83
69 68 67 66 65 65 64 63 62 62 62 62 62 62 62 62 61 61 61 60 60 60 61 61 62 62 61 61 61 60 59 59 59 58 58 57 56 56 56 57 58 60 63 65 68 71 73 74 73 71 70 70 69 69 68 68 67 67 67 68 68 68 68 68 67 67 66 66 65 64 64 63 63 64 64 65 67 69 71 74 76 78 78 78 78 79
68 67 67 66 65 64 63 62 61 60 60 61 61 61 61 61 60 60 59 59 58 59 59 60 60 60 59 58 58 57 57 56 56 55 55 54 54 53 53 53 55 57 59 62 66 69 72 74 73 72 71 70 70 69 68 68 67 67 67 67 67 67 67 67 66 66 65 64 63 62 61 60 60 60 60 61 62 63 65 68 70 73 75 75 75 75
67 67 66 65 64 63 62 62 61 60 59 59 59 59 59 59 59 59 58 57 57 57 57 58 58 58 57 56 55 54 54 53 53 52 52 51 51 50 50 50 51 53 56 59 63 67 71 73 74 73 72 71 70 69 68 68 67 66 66 66 66 66 65 65 65 64 63 62 61 60 59 58 57 57 56 57 57 58 60 62 65 68 70 71 72 72
67 66 65 65 64 63 62 61 60 59 59 59 58 58 57 57 57 58 58 57 56 55 56 56 56 55 55 53 52 51 51 50 50 49 49 48 48 47 47 47 48 50 53 56 60 64 69 72 74 73 72 71 70 69 68 67 66 66 65 65 64 64 64 64 64 63 62 60 59 58 56 55 55 54 54 54 54 55 56 58 60 62 65 67 68 68
66 66 65 64 63 62 61 60 59 59 59 58 58 57 56 56 56 56 57 57 56 55 54 54 53 52 51 51 50 48 48 47 47 47 46 45 45 44 44 45 45 47 50 54 57 62 66 70 73 73 72 71 70 69 68 67 66 66 65 64 64 64 63 63 62 62 60 59 58 56 55 54 54 53 53 53 53 53 53 54 55 57 59 62 63 64
66 65 64 63 62 61 60 59 59 58 58 58 57 57 56 55 55 55 56 56 55 54 54 53 51 50 48 47 46 46 45 45 44 44 43 43 42 42 41 42 43 45 48 51 55 59 64 68 71 72 72 71 70 69 68 67 66 66 65 64 64 63 63 63 62 61 60 59 58 57 56 55 54 54 53 53 52 52 52 52 52 53 55 57 59 60
65 64 63 62 61 60 59 58 58 58 57 57 57 56 56 55 55 54 54 54 54 53 52 51 50 47 45 43 43 42 42 42 42 41 41 40 40 39 39 40 42 43 45 48 52 56 61 65 69 71 71 71 70 69 68 67 67 66 65 65 64 64 64 63 63 62 61 60 59 59 58 57 56 55 55 54 54 53 52 52 51 51 52 54 56 57
64 63 62 61 59 58 57 57 57 57 56 56 56 56 55 55 54 54 54 53 52 51 51 49 47 45 42 40 39 39 39 40 40 39 39 38 37 37 37 38 39 40 42 44 48 52 57 62 66 69 71 71 70 69 68 68 67 66 66 66 66 65 65 64 64 63 63 62 62 61 61 60 59 58 57 57 56 55 54 53 52 52 51 52 54 55
63 62 61 60 58 57 56 56 56 56 56 55 55 55 55 54 54 53 53 52 51 50 49 48 45 42 39 36 35 36 37 37 38 37 36 35 34 34 34 35 35 36 37 40 43 48 53 58 63 67 69 70 70 70 69 68 67 67 67 66 67 67 66 66 66 65 65 65 64 64 63 62 62 61 60 59 58 57 56 55 54 53 52 52 53 55
63 61 60 59 57 56 55 55 55 55 55 55 54 54 54 53 53 52 51 51 50 49 47 46 44 41 37 33 31 32 34 35 36 35 34 32 30 29 30 31 32 32 33 36 39 43 48 54 59 64 67 69 70 70 69 68 68 67 67 67 68 68 68 68 68 67 67 67 66 66 65 65 64 63 62 61 61 60 59 58 56 55 53 53 53 55
61 60 58 57 56 55 55 54 54 54 54 54 54 53 53 52 51 51 50 49 48 47 46 44 42 39 36 32 29 29 31 32 33 32 30 28 26 25 26 27 28 28 29 31 34 38 44 49 55 60 64 67 69 69 69 69 68 68 68 68 69 69 69 70 69 69 69 69 68 68 67 67 66 65 64 63 63 62 61 60 59 57 55 54 54 55
60 58 57 56 55 55 54 54 54 54 54 54 53 53 52 51 50 49 49 48 47 45 43 41 39 37 34 31 28 27 28 30 30 29 26 23 22 22 23 24 24 24 25 27 30 34 39 44 50 55 60 64 67 68 69 69 69 68 68 69 69 70 70 71 71 71 71 70 70 70 69 69 68 67 66 65 64 63 63 62 61 59 57 56 55 56
58 56 55 54 54 54 54 53 53 53 54 54 53 53 52 51 49 48 47 46 44 42 40 38 36 34 32 29 27 26 27 27 26 25 22 20 18 18 19 20 20 20 21 23 26 30 34 40 45 51 56 60 64 67 68 69 69 69 69 69 69 70 70 71 72 72 72 72 72 71 71 70 70 69 68 66 65 64 63 63 62 60 59 57 56 57
57 55 54 53 54 54 54 53 53 53 53 53 53 52 51 50 48 47 45 43 41 39 37 35 33 31 29 27 25 24 24 24 23 21 19 16 14 14 15 15 16 16 17 19 22 26 30 35 40 45 51 56 60 64 66 68 68 69 69 69 69 69 70 71 71 72 72 72 72 72 72 71 70 69 68 67 66 64 63 62 62 61 59 58 57 57
56 54 53 53 53 53 54 53 53 53 52 52 52 52 51 49 47 45 43 40 38 36 34 31 30 28 26 25 23 22 22 21 20 18 15 12 10 10 11 12 13 13 14 15 18 22 26 30 35 40 46 51 55 60 63 65 67 67 68 68 68 68 69 69 70 70 71 71 71 71 71 70 69 68 67 66 65 63 62 61 61 60 59 58 58 58
54 54 53 52 52 53 53 53 53 52 52 52 51 51 49 48 46 43 40 38 35 33 31 28 27 25 24 22 21 19 19 18 17 15 12 9 8 8 9 11 11 12 12 14 16 19 22 26 30 35 40 45 50 54 58 61 63 65 66 66 67 67 67 68 68 68 68 68 69 69 68 68 67 66 65 64 63 62 61 60 59 59 58 58 58 58
53 53 52 52 52 52 52 52 52 52 52 51 50 49 47 45 43 40 38 35 33 31 28 26 24 22 21 20 18 16 15 15 14 13 10 9 8 8 9 11 12 12 13 14 16 18 21 23 26 30 35 39 44 48 52 55 58 60 62 63 64 65 65 65 66 66 66 66 66 66 66 65 64 63 62 61 60 59 58 58 57 57 57 57 58 58
52 52 52 52 52 52 52 52 52 51 50 50 48 47 44 42 39 36 34 32 31 29 26 24 22 20 18 17 15 13 12 12 12 11 10 9 8 8 10 12 13 13 13 14 16 17 19 21 23 26 30 34 38 41 45 48 51 53 55 57 58 60 60 61 61 62 62 62 62 62 61 60 60 59 58 57 56 56 55 55 55 55 56 56 56 56
51 51 51 51 51 51 51 51 50 49 48 47 46 44 41 38 35 32 30 29 28 26 24 22 20 18 16 15 13 11 10 10 11 11 11 10 9 8 10 12 13 13 13 13 14 16 17 18 20 22 25 28 32 35 38 40 43 45 47 49 51 52 53 54 54 55 55 55 55 54 54 53 53 53 52 52 52 52 52 52 52 53 54 54 55 54
50 50 50 50 50 50 49 49 48 46 45 43 42 39 37 34 30 28 26 25 24 23 21 20 18 16 15 13 11 10 9 9 10 11 12 11 9 8 10 12 12 12 12 12 13 13 15 16 17 19 22 24 27 29 31 33 35 37 39 40 42 43 44 45 45 46 46 46 46 46 46 46 46 46 47 47 48 48 48 49 50 51 52 52 53 53
48 48 48 48 48 48 47 45 44 42 40 37 35 33 31 29 26 24 23 22 21 20 19 18 16 15 13 12 11 10 9 9 10 11 12 11 9 9 10 11 11 11 11 10 11 11 12 13 15 17 19 21 22 24 25 27 29 30 32 33 34 35 36 37 37 38 38 38 38 39 39 40 41 41 42 43 44 44 45 46 47 48 49 50 51 51
47 47 46 46 45 44 43 41 38 35 33 30 28 27 26 25 24 23 22 22 21 21 19 17 16 14 13 12 11 10 9 9 10 12 12 11 9 9 10 11 11 10 9 8 8 9 9 11 13 15 16 18 19 20 21 22 24 25 26 27 28 29 30 30 31 31 32 32 33 34 35 36 37 38 39 40 41 42 43 44 45 46 47 48 49 50
45 44 43 42 41 39 37 34 31 28 26 24 23 22 22 22 23 23 23 23 23 22 21 19 16 15 13 11 10 9 8 9 10 12 12 10 9 9 10 10 9 8 6 6 5 4 5 7 10 12 14 15 16 17 18 19 20 21 22 23 23 24 25 25 26 27 28 29 30 31 32 33 34 35 36 37 38 39 40 41 42 44 45 46 48 49
42 41 39 37 35 32 30 27 24 22 20 19 19 20 21 22 23 23 24 24 24 24 22 20 18 16 13 11 7 5 6 7 9 11 11 10 8 8 9 9 8 6 5 3 2 2 2 5 8 11 12 13 13 14 15 16 17 18 19 19 20 20 21 22 23 24 25 26 27 29 30 31 32 33 34 35 36 37 38 39 41 42 44 45 46 47
38 36 33 31 28 25 23 21 19 18 17 17 18 20 21 23 24 24 24 25 25 24 23 21 19 16 14 11 6 3 4 5 7 10 11 9 8 8 9 8 8 7 5 3 1 1 2 4 7 10 11 11 12 12 13 14 15 16 16 16 17 18 19 19 20 22 23 24 25 26 27 28 29 31 32 33 34 35 36 38 40 42 43 44 45 45
32 29 26 24 21 19 18 18 17 17 17 18 20 21 23 24 25 25 25 25 25 25 24 22 20 17 14 10 6 3 3 4 7 9 10 9 8 8 9 9 9 8 6 4 2 2 2 4 7 10 11 10 10 11 12 13 13 14 14 14 15 15 17 17 18 19 20 21 22 23 24 25 27 28 29 30 32 34 36 38 40 41 42 43 43 42
25 22 20 18 17 16 17 17 17 18 19 20 22 23 24 25 26 26 26 26 25 25 24 23 21 19 16 11 6 3 3 5 7 9 10 9 8 8 9 10 10 9 8 6 4 2 2 3 6 10 11 11 10 10 11 11 12 12 12 13 13 14 15 16 16 17 18 19 20 21 23 24 25 27 28 30 32 34 36 38 39 40 40 40 40 40
19 17 16 16 16 16 16 17 18 19 20 21 23 24 25 25 25 25 25 24 24 23 23 22 21 20 17 13 8 4 3 5 7 8 8 7 7 6 8 9 10 10 9 8 6 4 3 3 6 9 12 11 10 9 10 10 10 11 11 12 13 14 14 15 16 17 18 20 21 22 23 25 27 28 29 31 33 35 36 37 38 38 38 38 38 38
16 15 15 16 16 17 17 18 19 20 21 22 23 23 24 24 23 23 22 21 21 21 21 20 20 19 18 15 11 7 4 5 6 6 5 5 4 4 5 8 9 9 10 10 9 7 6 4 5 9 12 12 10 9 9 9 10 10 11 12 13 14 15 16 18 19 21 22 23 25 26 27 29 30 31 32 33 35 36 36 37 37 37 37 37 37
16 16 17 18 19 20 20 20 21 21 22 22 22 22 22 22 21 20 19 19 18 18 18 18 18 18 18 16 13 10 6 4 4 4 3 2 2 2 3 6 8 9 10 10 11 10 9 6 5 9 12 12 10 9 8 8 9 10 11 13 14 16 17 19 20 22 23 25 26 27 28 29 30 31 32 33 33 34 34 35 35 36 36 36 36 36
18 19 20 21 22 23 23 24 23 23 23 23 22 22 22 21 20 19 18 17 17 17 17 17 17 17 18 17 14 11 7 5 3 3 2 2 2 2 2 4 7 8 9 10 11 12 11 8 7 8 12 12 10 8 7 8 9 10 12 13 15 17 19 21 22 24 25 26 27 28 28 29 30 30 31 32 32 33 33 34 34 35 35 35 35 36
21 22 23 24 25 26 26 26 25 25 24 24 23 23 22 21 20 19 18 17 17 16 16 16 17 17 18 17 15 12 8 5 3 2 2 2 2 1 1 3 6 8 8 9 10 11 11 10 8 9 12 12 10 7 6 7 9 10 12 14 16 19 20 22 23 25 26 27 27 28 28 29 29 29 30 30 30 31 31 32 33 33 34 34 34 35
22 24 25 26 27 27 27 26 25 24 23 23 23 22 21 20 19 17 16 16 16 16 15 16 16 16 17 16 14 11 7 5 3 1 1 2 2 1 1 3 5 7 8 9 9 10 11 11 10 10 12 12 10 7 6 7 9 11 13 15 18 20 21 23 24 25 26 26 27 27 27 28 28 28 28 28 28 29 29 30 31 32 33 33 34 34
24 25 25 26 26 26 25 24 23 22 22 22 21 21 20 19 17 16 15 14 14 14 14 14 14 15 15 14 12 8 5 3 2 0 1 2 2 2 2 3 5 8 9 9 9 9 9 10 11 11 13 11 9 6 6 7 9 11 14 16 18 20 22 23 24 25 25 26 26 26 27 27 27 27 27 27 27 27 28 29 29 30 31 32 32 33
25 25 25 25 25 24 24 23 22 21 21 21 20 19 18 17 16 15 13 12 12 12 12 12 13 13 12 11 9 6 4 3 2 1 0 1 1 2 3 5 6 8 8 8 8 8 8 9 10 11 11 10 7 6 6 8 10 12 14 16 18 20 22 23 24 25 25 25 26 26 26 26 26 26 26 26 26 26 27 27 28 29 30 30 31 32
25 25 25 25 25 24 24 23 22 21 21 20 19 18 17 16 15 14 12 11 10 10 10 10 10 10 9 8 6 4 3 2 2 1 1 1 2 3 4 5 6 7 7 7 7 7 7 7 8 8 9 7 5 5 6 8 10 12 14 16 18 20 21 23 24 25 25 25 25 25 25 25 25 25 25 25 26 26 27 27 28 29 29 30 31 32
26 26 25 25 24 24 23 22 22 21 20 19 18 17 16 15 14 12 11 10 9 9 8 8 8 8 7 5 3 2 1 1 1 1 1 1 1 2 2 3 4 4 4 5 6 6 5 5 5 5 5 5 4 5 7 9 11 13 15 17 19 20 21 23 24 24 24 25 25 25 25 25 25 25 25 25 26 26 27 28 29 29 30 30 31 32
27 26 25 24 23 22 21 20 20 19 19 18 16 15 14 13 12 11 10 9 9 8 7 7 6 5 4 2 1 1 1 1 1 1 2 2 1 1 0 1 2 2 2 3 3 4 4 4 4 4 4 4 5 6 8 10 12 14 15 17 19 20 21 23 23 24 24 24 24 24 24 24 25 25 25 26 27 27 28 29 30 30 31 31 32 33
26 24 23 22 21 19 18 17 17 16 15 14 13 12 12 11 10 9 9 8 8 7 6 5 5 4 3 3 2 2 2 2 2 3 3 4 3 3 2 1 1 1 1 1 1 2 2 3 3 3 4 5 6 8 10 12 13 15 16 18 19 20 21 22 23 23 24 24 24 24 24 24 25 25 26 26 27 28 29 30 30 31 31 32 32 33
23 22 21 19 18 17 16 15 14 13 13 12 11 10 10 9 9 8 7 7 6 6 6 6 6 5 4 4 3 3 3 3 3 4 5 5 5 5 4 4 4 3 3 2 2 3 3 3 4 4 5 6 7 9 11 13 14 15 17 18 20 21 21 22 23 23 23 23 23 24 24 24 25 25 26 27 27 28 29 29 30 30 31 31 32 32
21 20 19 18 17 16 15 14 13 12 12 11 10 10 9 8 8 8 7 7 7 7 7 7 7 7 6 6 5 5 6 6 6 6 7 7 6 6 6 6 6 6 6 6 6 5 5 5 5 6 6 7 8 10 12 13 15 16 18 19 20 21 22 22 23 23 23 23 23 24 24 24 25 26 26 27 27 28 29 29 30 30 30 30 30 31
19 19 18 17 16 15 14 14 13 12 11 11 10 10 9 9 9 9 9 9 9 9 9 9 8 8 8 8 8 8 8 8 8 7 7 6 6 5 5 4 4 4 4 5 6 7 7 8 8 7 8 8 9 11 12 14 15 17 18 19 20 21 22 22 23 23 23 23 23 24 24 24 25 26 26 27 28 28 29 30 30 30 30 30 29 29
18 18 17 16 15 15 14 13 12 12 11 11 10 10 10 10 11 11 11 11 11 10 10 9 9 9 8 8 8 8 7 7 6 5 4 3 2 1 0 1 2 2 2 1 1 3 5 7 8 9 10 10 10 11 13 14 16 17 18 20 21 21 22 22 22 23 23 23 23 23 24 24 25 26 27 28 28 30 31 31 31 31 31 30 30 30
18 17 16 16 15 14 13 13 12 12 11 11 11 10 11 11 11 11 11 11 11 10 10 9 9 9 8 8 7 6 5 4 4 3 2 2 2 3 3 4 5 6 7 7 6 5 3 4 6 8 10 11 12 12 13 14 15 17 18 19 20 21 22 22 22 22 22 23 23 23 23 24 24 25 27 28 29 30 31 31 31 30 29 29 30 31
Wind_Direction
305 304 303 302 301 300 299 298 297 296 295 294 293 292 291 291 290 290 290 289 289 289 289 289 288 288 287 286 286 285 284 283 281 279 276 274 271 268 265 261 256 252 249 246 245 245 245 246 246 246 245 245 245 244 244 244 244 244 244 244 244 244 244 244 243 243 243 243 243 244 244 244 244 244 244 246 246 246 244 241 238 235 233 230 227 225
305 304 303 302 301 300 299 298 298 297 296 295 294 294 293 292 291 291 290 290 290 289 289 289 288 288 288 288 288 287 286 285 283 281 278 275 272 268 265 261 257 253 249 245 244 243 243 244 244 244 244 244 244 244 243 243 242 242 242 242 242 243 243 243 243 243 243 243 243 243 244 244 244 244 244 245 246 247 247 245 242 238 236 233 231 228
305 304 303 302 301 300 299 299 298 297 296 295 295 295 294 294 293 292 291 291 290 290 289 289 289 289 289 289 289 289 289 287 285 283 280 277 273 269 265 261 258 253 249 245 242 241 241 242 242 243 243 243 244 244 243 243 242 242 241 241 241 241 241 241 242 242 243 243 243 243 243 244 244 244 244 244 245 246 248 248 246 243 239 236 234 233
305 304 303 302 301 300 300 299 298 297 296 296 295 295 294 294 293 293 292 292 291 290 290 290 290 290 290 291 291 291 290 289 287 285 282 278 274 270 266 262 258 254 249 245 242 240 239 240 241 241 242 242 243 243 243 243 242 241 241 241 240 240 240 240 240 241 241 242 242 242 243 243 243 244 244 244 244 245 247 248 249 247 243 239 237 236
305 304 303 303 302 301 300 300 299 298 297 296 295 295 294 294 293 293 292 292 291 291 291 290 291 291 292 293 293 293 292 291 289 286 283 280 276 272 267 263 258 254 249 245 241 239 238 238 239 240 241 241 242 243 243 243 242 241 241 241 240 240 239 239 239 239 240 240 241 241 242 242 243 243 243 244 244 245 246 247 248 248 247 243 240 239
305 304 304 303 302 302 301 301 300 299 299 297 296 296 295 294 294 293 293 292 292 292 292 292 292 293 294 294 294 294 293 292 290 288 285 281 278 273 268 264 259 254 250 245 241 238 236 236 237 238 239 240 241 242 242 242 242 241 241 241 240 240 240 239 239 239 239 239 240 240 241 241 242 242 243 243 244 244 245 245 247 248 248 247 244 242
305 305 304 303 303 302 302 302 301 301 300 299 298 297 296 296 295 294 294 293 293 293 293 293 294 294 295 295 295 294 293 292 290 288 286 283 279 275 270 265 260 255 250 245 241 237 235 235 235 236 237 239 240 240 241 241 241 241 240 240 240 240 240 239 239 239 239 239 239 239 239 239 240 240 241 241 242 243 243 244 245 246 248 248 246 244
306 305 304 304 303 303 302 302 302 302 301 300 300 299 298 297 296 295 295 294 294 294 294 295 295 295 296 296 296 295 294 292 291 288 286 283 280 276 271 266 260 255 250 246 241 237 234 233 234 235 236 237 238 239 240 240 240 240 239 239 239 239 239 239 239 239 238 238 238 238 237 237 237 238 238 239 239 240 241 242 243 244 246 247 247 246
306 305 305 304 304 304 303 303 302 302 302 301 300 300 299 298 297 296 295 295 295 295 296 296 296 297 297 297 296 295 294 293 291 289 286 284 280 276 272 267 261 256 251 246 241 237 234 233 232 233 234 235 237 238 238 239 239 239 239 238 238 238 238 238 238 238 237 237 237 236 236 235 235 235 236 236 237 238 239 240 241 242 244 246 247 247
306 306 305 305 305 304 304 304 303 303 302 301 300 300 299 299 298 297 296 296 296 296 296 297 297 298 298 298 297 296 294 292 290 288 286 284 281 277 273 268 262 256 251 246 242 237 234 232 232 232 233 234 235 237 237 238 239 239 238 238 237 237 237 237 237 237 236 236 235 235 234 234 234 234 234 235 236 237 238 239 240 241 243 244 246 247
306 306 306 306 306 305 305 305 305 304 303 302 301 300 300 299 299 298 297 297 297 297 298 298 298 299 299 299 298 296 294 292 290 288 286 284 282 278 274 269 263 257 251 246 242 238 234 232 231 231 232 233 234 235 236 237 238 238 238 237 237 236 236 236 236 235 235 234 234 233 233 232 233 233 234 235 236 237 238 239 239 240 242 243 245 246
307 307 307 307 307 307 307 306 306 305 304 303 302 301 301 300 300 299 299 299 299 300 299 299 300 300 300 300 299 297 294 292 290 288 287 284 282 278 274 269 264 258 252 246 242 238 235 232 231 230 231 232 233 234 235 236 237 237 237 236 236 235 235 235 234 234 233 233 232 232 231 232 232 233 234 235 236 237 238 238 239 240 241 243 244 245
308 308 308 308 308 308 308 307 306 305 305 304 304 303 303 302 301 300 300 300 301 302 302 301 301 302 302 301 300 298 295 293 290 289 287 285 282 278 274 269 263 258 252 247 242 238 235 232 231 230 230 231 232 233 234 235 235 236 235 235 234 234 233 233 233 232 232 231 231 231 231 232 232 233 234 235 236 237 238 239 239 240 241 242 244 245
309 309 308 308 308 309 308 308 307 306 306 306 305 304 304 303 302 302 302 302 303 303 303 303 303 303 303 302 301 298 296 293 290 288 286 284 282 278 274 269 263 258 253 248 243 239 235 233 231 230 230 230 231 232 233 234 235 235 234 233 233 232 232 231 231 231 231 230 230 231 231 232 233 234 235 236 237 238 239 239 240 241 242 243 244 245
309 309 309 309 309 309 309 308 307 307 306 306 305 305 304 303 303 303 303 303 304 304 304 304 304 304 304 303 301 299 295 292 290 288 286 284 281 278 274 270 265 260 255 250 245 240 236 234 232 230 230 230 231 232 233 233 234 234 233 233 232 231 231 230 230 230 230 230 230 231 231 232 233 234 235 236 237 238 239 240 240 241 243 244 245 245
310 310 310 310 310 309 309 308 307 307 306 306 305 304 304 304 304 304 305 305 306 306 306 306 305 305 304 303 301 299 295 292 290 288 286 284 282 280 276 271 265 260 256 251 247 242 238 235 233 231 230 230 230 231 232 233 233 233 233 232 232 231 230 230 229 229 229 230 230 231 232 233 233 234 235 236 237 238 238 239 240 241 243 244 245 245
311 311 311 311 310 310 309 308 307 307 306 305 305 304 304 304 305 306 306 307 308 308 308 307 307 307 306 304 302 298 295 292 290 289 288 288 286 283 277 271 266 260 255 251 247 243 239 236 234 232 231 230 230 231 232 232 233 233 233 232 232 231 230 230 230 230 231 231 232 232 233 234 235 235 236 237 237 238 238 239 239 240 242 244 245 245
312 312 312 311 310 309 309 308 307 307 306 305 305 304 304 305 306 307 308 309 309 309 309 309 309 308 308 307 304 300 296 293 291 291 292 292 289 283 277 271 266 261 256 251 247 243 240 237 234 233 232 231 231 231 232 232 233 233 233 233 232 232 231 231 232 232 233 233 234 235 236 236 237 237 238 238 238 238 239 239 239 240 241 243 244 244
312 312 312 311 310 309 308 308 307 307 306 305 305 305 306 307 308 309 310 311 311 311 311 310 310 310 309 309 307 303 297 295 294 295 296 295 289 281 275 272 268 263 257 252 247 243 240 237 235 234 232 232 232 232 232 232 233 233 233 233 233 233 233 233 233 234 235 236 236 237 238 239 239 239 240 240 240 240 240 240 240 240 241 242 243 242
312 312 311 311 309 309 308 308 307 307 306 306 306 307 308 309 310 311 312 312 312 312 312 311 311 311 310 310 308 304 300 297 297 297 297 293 286 278 273 270 267 263 258 253 248 244 241 238 236 234 233 233 233 233 233 233 233 234 234 234 234 234 234 235 235 236 236 237 238 239 239 240 241 241 241 241 242 241 241 241 240 240 241 241 241 241
311 312 311 310 309 309 308 308 307 307 307 307 307 308 310 311 312 313 313 313 313 313 312 312 312 311 311 310 308 305 301 299 298 297 294 288 279 272 269 267 264 260 256 252 248 245 242 239 237 235 234 234 234 234 234 234 234 235 235 235 235 235 236 236 237 237 238 238 239 240 241 241 242 242 242 242 242 242 242 241 241 240 240 240 239 238
311 311 311 310 309 309 308 308 308 308 308 308 308 310 311 312 313 314 314 314 314 313 313 313 313 312 311 310 308 305 301 299 297 294 288 280 268 262 262 262 259 255 252 249 247 245 242 240 238 236 235 235 235 235 235 235 236 236 236 237 237 237 237 238 238 239 239 240 240 241 242 242 243 243 243 243 243 242 242 241 240 239 238 237 237 236
311 311 311 310 309 308 308 308 308 308 308 309 309 311 312 313 314 315 315 315 315 314 314 314 314 313 311 310 308 305 301 298 295 291 283 271 253 245 251 254 252 247 244 243 243 243 242 240 239 237 236 236 236 236 236 237 237 237 238 238 239 239 240 240 240 241 241 242 242 243 243 243 243 243 243 243 243 242 241 240 238 237 235 234 234 233
311 310 310 309 308 308 307 307 308 308 309 309 310 311 313 314 315 316 316 316 316 315 315 315 315 313 310 309 306 303 298 295 294 290 283 270 251 240 243 247 246 241 238 237 238 239 240 240 239 239 238 237 237 237 237 237 238 239 239 240 240 241 241 242 242 243 243 244 244 244 244 244 244 244 243 242 241 240 239 237 235 234 232 231 230 230
310 310 309 309 308 307 307 307 308 309 309 310 311 312 313 315 316 317 318 317 316 316 316 316 315 312 308 306 303 298 292 291 291 289 284 276 261 246 244 247 247 243 240 238 239 240 240 240 241 241 240 239 238 238 238 238 239 239 240 241 241 242 242 243 243 243 244 244 244 244 244 244 243 242 241 240 239 237 236 234 232 230 229 228 227 226
310 309 309 308 307 307 307 307 308 309 310 311 312 313 315 317 319 321 321 320 319 318 318 318 316 312 308 304 297 289 283 283 284 283 281 279 269 255 248 250 250 248 244 242 243 244 243 243 243 243 243 242 241 240 239 239 239 240 240 240 241 241 242 242 242 242 242 242 242 242 242 241 240 239 238 237 235 233 232 230 228 227 226 225 224 223
309 308 308 307 307 307 307 308 309 310 311 312 313 315 318 321 325 328 329 328 326 325 324 322 318 313 307 301 292 282 276 275 277 278 278 277 271 258 249 249 250 248 243 241 242 245 246 245 245 245 246 245 243 242 241 240 239 239 239 239 239 239 240 240 240 240 239 239 239 239 238 237 236 235 234 232 231 229 228 226 225 224 223 222 221 219
308 307 307 306 306 306 307 308 309 311 312 314 316 319 323 328 334 340 343 342 341 339 338 333 326 319 310 300 290 282 276 272 275 278 278 276 271 259 246 246 245 243 237 234 237 242 245 247 247 247 247 246 245 243 242 240 239 238 237 237 236 236 236 236 236 236 235 235 235 234 233 232 231 230 229 228 227 225 224 223 222 221 220 219 217 215
307 307 306 306 306 307 308 310 311 313 315 318 322 326 331 336 343 349 352 353 354 356 355 350 343 333 321 308 295 284 276 274 277 280 279 278 272 259 247 243 241 238 232 228 230 238 246 251 252 251 249 248 246 244 242 239 237 235 234 233 232 232 232 232 231 231 231 230 230 229 228 228 227 226 225 224 223 222 221 221 220 219 217 215 213 211
307 307 307 307 307 309 310 312 315 318 321 325 330 334 340 344 348 351 354 356 358 1 4 3 359 351 339 323 303 283 271 274 281 284 281 279 271 258 247 240 235 228 221 216 217 229 247 259 260 258 254 251 248 245 241 238 235 232 231 229 228 228 227 227 227 226 226 226 226 225 225 225 224 223 223 222 221 220 219 218 216 214 212 210 208 207
308 308 308 309 310 312 314 317 320 324 329 333 337 340 343 346 348 350 353 354 355 358 2 5 6 2 354 343 321 280 257 266 280 285 281 277 266 252 242 231 217 204 196 182 188 219 257 267 270 268 261 254 249 244 240 236 232 229 226 224 223 222 222 222 222 223 223 223 223 223 223 223 222 222 221 219 218 216 214 212 210 208 206 204 203 203
310 311 312 313 315 317 320 324 327 330 334 336 338 340 342 343 345 347 349 350 351 353 356 0 3 3 360 354 343 296 246 259 275 280 278 274 262 246 233 214 192 176 180 175 186 288 285 269 277 278 268 259 250 243 238 233 229 225 221 218 217 216 217 218 218 219 220 220 220 220 220 219 218 217 215 213 211 209 206 204 202 200 198 198 198 200
314 315 317 319 322 325 328 330 332 333 334 335 336 337 339 341 342 343 344 345 346 348 350 354 357 358 357 353 344 316 264 272 277 276 275 274 263 244 226 204 182 169 171 184 219 277 289 276 281 283 277 266 252 242 235 230 225 220 215 211 209 209 210 212 212 213 213 214 213 212 211 210 208 206 204 202 200 197 196 194 193 193 193 194 195 198
320 322 325 329 332 334 334 334 334 333 334 335 335 337 338 339 339 339 339 339 340 342 345 347 350 352 353 349 339 317 294 290 282 275 275 277 269 251 229 205 185 171 166 173 192 220 247 266 275 278 278 270 255 240 232 226 220 214 207 202 200 199 200 201 201 201 200 199 198 196 195 193 190 189 188 188 187 186 186 186 187 188 189 191 194 196
329 332 335 337 339 339 338 337 336 335 335 335 336 336 336 336 335 335 334 335 335 337 339 342 345 347 349 347 339 320 297 288 281 277 280 285 280 261 237 215 199 185 174 170 174 181 189 223 258 270 272 269 256 238 228 221 214 206 198 193 189 188 188 187 186 184 183 181 180 178 178 176 175 175 176 177 178 179 180 182 184 185 188 190 193 195
339 340 340 340 340 340 339 337 336 336 335 335 334 333 333 332 332 331 332 332 333 333 335 338 341 344 347 348 345 335 314 292 285 286 293 300 299 277 244 226 217 206 190 178 171 169 169 188 236 260 266 265 256 239 222 214 205 197 188 183 180 178 175 173 172 171 169 168 167 167 167 167 168 169 170 173 175 177 179 181 183 185 187 190 192 194
344 343 341 340 339 338 337 335 334 332 331 330 330 330 329 329 329 330 331 332 332 332 333 334 336 340 343 346 346 342 333 315 304 305 316 331 338 318 263 239 233 225 210 191 179 171 166 172 212 247 259 262 257 242 220 206 197 189 180 175 172 168 166 165 164 163 163 162 162 163 164 165 166 167 169 171 174 176 179 181 183 185 188 189 191 192
344 341 338 336 334 332 331 329 327 326 325 324 325 325 326 326 328 329 330 331 331 331 331 332 333 334 335 337 338 338 334 327 323 326 345 19 29 1 304 261 251 243 230 210 194 182 174 170 193 232 252 259 257 242 216 200 190 182 173 170 166 163 161 160 160 160 160 160 161 162 163 165 166 168 170 172 174 177 180 182 184 186 188 189 190 191
339 336 332 329 327 324 323 321 320 319 319 320 320 322 323 325 326 327 327 327 327 327 328 329 330 329 328 328 328 326 323 319 317 329 357 32 40 27 331 284 269 260 247 230 213 200 187 179 188 220 245 255 255 241 212 193 183 177 170 166 163 160 159 159 159 160 160 160 161 163 164 165 167 169 171 173 176 178 181 183 185 187 188 189 189 190
331 327 324 321 319 317 316 315 315 315 316 317 318 319 321 323 324 325 324 323 323 325 326 328 329 328 326 324 321 315 308 299 295 313 10 30 35 30 345 293 277 267 257 243 227 212 200 189 191 213 238 250 252 239 210 187 178 173 168 163 160 159 159 159 160 160 160 161 162 163 165 166 167 169 172 174 177 180 183 185 186 187 188 189 189 188
321 318 316 315 313 312 312 312 313 314 315 316 317 318 320 322 323 323 322 321 322 324 326 329 330 329 327 323 316 305 288 271 259 276 28 22 9 351 312 281 268 261 256 247 232 219 208 197 196 211 232 244 245 231 203 183 175 170 165 163 160 159 160 160 161 161 161 162 163 164 165 167 168 171 173 176 178 181 183 185 186 187 188 188 188 187
315 313 312 311 311 310 310 311 312 313 314 316 317 319 321 323 324 323 322 321 322 324 327 331 332 332 329 323 312 292 265 240 217 186 106 343 311 291 276 264 255 251 248 243 233 221 211 203 203 212 227 236 235 217 191 176 171 168 165 162 161 161 162 162 162 162 163 163 164 164 166 168 170 172 174 176 178 180 182 183 184 185 186 186 186 186
317 315 314 312 311 310 309 309 310 310 312 313 315 319 322 323 323 323 323 323 325 328 331 333 334 333 330 321 306 279 247 220 207 196 207 232 248 253 254 250 246 244 243 239 232 222 211 207 209 215 223 228 219 197 180 170 168 166 164 162 162 163 165 164 163 163 163 164 165 165 167 168 170 172 174 176 178 179 180 181 182 183 184 184 184 184
322 321 319 317 314 312 310 309 308 309 310 311 314 318 322 323 324 324 325 327 329 331 333 334 334 332 327 318 300 266 229 211 205 227 255 258 254 249 243 240 240 241 238 236 232 225 215 211 210 213 216 212 196 175 165 163 163 163 162 161 161 163 165 165 164 164 164 165 165 166 167 169 170 172 174 175 177 178 179 180 180 181 182 183 183 183
326 325 325 323 321 319 316 314 313 312 313 315 317 320 324 326 327 328 331 332 334 335 337 339 340 343 343 345 1 105 103 86 68 55 47 46 48 49 177 218 223 230 233 233 228 222 218 218 212 206 196 188 174 163 157 157 159 159 160 160 161 163 164 165 165 164 165 165 166 167 167 168 170 171 173 175 176 178 178 179 180 180 181 182 183 183
331 332 332 332 331 330 328 326 325 325 325 327 329 332 333 334 336 339 342 344 345 347 353 2 11 23 36 57 76 86 86 82 76 72 70 69 70 74 86 107 143 190 219 226 203 189 191 199 198 190 178 166 157 151 150 153 155 156 157 158 160 162 164 165 165 165 165 165 166 167 167 168 170 171 173 175 176 177 178 178 178 179 180 181 182 183
340 341 343 344 345 345 345 345 345 346 346 348 349 350 350 350 352 357 1 5 10 20 33 46 56 63 67 72 73 74 71 70 73 76 78 78 80 83 87 89 92 92 91 92 98 113 131 150 163 168 163 155 149 147 148 150 152 153 155 157 159 162 164 165 166 165 165 166 166 167 168 168 170 171 173 174 175 176 177 177 177 178 178 179 180 181
350 353 356 358 359 1 2 4 6 7 7 8 10 10 10 13 18 22 29 37 47 57 65 69 71 71 70 69 69 70 71 72 73 75 77 79 81 82 83 82 82 83 83 85 88 94 104 117 132 144 148 147 145 144 145 147 150 152 154 157 160 162 164 165 166 166 166 166 167 167 168 169 170 171 172 173 174 174 174 174 174 175 175 175 176 177
2 5 8 10 12 14 16 19 21 22 23 25 26 29 32 38 43 48 53 59 66 70 73 73 71 69 67 67 68 69 69 69 69 69 70 72 72 73 74 73 74 74 77 82 87 91 96 101 109 119 129 137 138 139 143 146 149 152 155 158 160 162 165 165 166 166 167 167 168 168 169 170 171 171 172 172 172 171 171 170 170 170 170 171 172 174
11 14 17 19 21 24 27 29 32 34 36 39 41 43 47 52 55 59 63 66 69 70 70 69 67 65 64 64 64 63 61 59 56 53 52 51 47 29 287 238 233 230 228 207 132 106 101 102 103 107 113 122 130 136 140 145 149 153 156 158 161 163 165 166 166 167 168 168 168 169 169 170 171 171 171 171 170 169 168 168 168 168 168 170 172 174
17 21 23 27 30 32 36 39 42 45 48 49 51 52 54 57 60 62 64 66 67 67 66 64 61 60 58 57 55 51 43 33 16 358 337 314 292 273 258 245 232 225 223 222 220 214 189 146 123 115 112 113 119 128 135 142 147 152 156 159 161 163 165 167 168 168 169 169 169 169 169 170 171 171 171 170 170 169 169 169 170 172 174 176 178 180